YZ-1 R/B

基本信息
目录编号:
43708
目录名称:
YZ-1 R/B
国际标识:
2018-093C
轨道中心:
EARTH
物体状态:
在轨
发射日期:
2018-11-18 UTC
国别:
中国 (CN)
轨道信息
数据来源: 国际轨道数据
星历时间: 2026-07-13T11:48:23+0800
半长轴: 28830.161km
偏心率: 0.0163871
轨道倾角: 54.128°
近地点辐角: 52.300°
升交点赤经: 191.190°
平近点角: 309.181°
近地点: 21979.581km
远地点: 22924.467km
周期: 811.952分钟
每日圈数: 1.773504
详细信息
发射场:
XSC
轨道高度:
MEO
数据来源:
AOE Integration Group
参考系:
TEME
时间系统:
UTC
历元类型:
SGP4
2D轨道图
3D轨道图
轨道高度分析图
轨道倾角分析图
轨道综合分析图
查看轨道综合分析图